• MPC Preparation (Info)

  • MPEC 2016-R112: 2016 RS19

    The following Minor Planet Electronic Circular may be linked-to from your own Web pages, but must not otherwise be redistributed electronically.

    A form allowing access to any MPEC is at the bottom of this page.


    Read MPEC 2016-R111 Read MPEC 2016-R113


    M.P.E.C. 2016-R112                               Issued 2016 Sept. 11, 01:30 UT
    
         The Minor Planet Electronic Circulars contain information on unusual
             minor planets and routine data on comets.  They are published
        on behalf of Division F of the International Astronomical Union by the
              Minor Planet Center, Smithsonian Astrophysical Observatory,
                              Cambridge, MA 02138, U.S.A.
    
                 Prepared using the Tamkin Foundation Computer Network
    
                                  MPC@CFA.HARVARD.EDU
                URL https://www.minorplanetcenter.net/    ISSN 1523-6714
    
                                       2016 RS19
    
    Observations:
         K16R19S* C2016 09 06.41474 01 20 42.62 +20 35 32.8          20.0 VqER112G96
         K16R19S  C2016 09 06.42086 01 20 42.93 +20 35 31.6          20.1 VqER112G96
         K16R19S  C2016 09 06.42703 01 20 43.22 +20 35 29.8          20.2 VqER112G96
         K16R19S  C2016 09 06.43323 01 20 43.52 +20 35 27.7          20.4 VqER112G96
         K16R19S KC2016 09 07.36017201 21 30.81 +20 30 03.5          20.7 VuER112H21
         K16R19S KC2016 09 07.36690701 21 31.11 +20 30 00.9          20.5 VuER112H21
         K16R19S KC2016 09 07.37314501 21 31.41 +20 29 58.5          20.5 VuER112H21
         K16R19S KC2016 09 07.93853 01 22 00.13 +20 26 26.8          19.7 RoER112461
         K16R19S KC2016 09 07.94340 01 22 00.36 +20 26 25.1          19.7 RoER112461
         K16R19S  C2016 09 08.95503 01 22 50.15 +20 19 44.3                qER112246
         K16R19S  C2016 09 08.95747 01 22 50.26 +20 19 42.0                qER112246
         K16R19S  C2016 09 08.95909 01 22 50.31 +20 19 41.6                qER112246
         K16R19S  C2016 09 09.04213 01 22 54.10 +20 19 07.6          21.5 VSER112033
         K16R19S  C2016 09 09.04449 01 22 54.20 +20 19 06.4          21.5 VSER112033
         K16R19S  C2016 09 09.04686 01 22 54.31 +20 19 05.6          21.5 VSER112033
         K16R19S  C2016 09 09.09046 01 22 56.31 +20 18 47.2          21.4 VSER112033
         K16R19S  C2016 09 09.09282 01 22 56.41 +20 18 46.4          21.6 VSER112033
         K16R19S  C2016 09 09.09520 01 22 56.52 +20 18 45.4          21.8 VSER112033
         K16R19S HC2016 09 09.46922 01 23 14.36 +20 16 10.1          21.3 VoER112691
         K16R19S HC2016 09 09.47508 01 23 14.49 +20 16 08.0          21.3 VoER112691
         K16R19S HC2016 09 09.48098 01 23 14.81 +20 16 04.9          21.1 VoER112691
         K16R19S HC2016 09 10.48346 01 24 02.29 +20 08 39.0          20.8 VoER112691
         K16R19S HC2016 09 10.48936 01 24 02.51 +20 08 36.5          20.7 VoER112691
         K16R19S HC2016 09 10.49530 01 24 02.79 +20 08 33.6          20.7 VoER112691
    
    Observer details:
    033 Karl Schwarzschild Observatory, Tautenburg.  Observers B. Stecklum,
        C. Hoegner.  Measurer B. Stecklum.  1.34-m f/3 Schmidt + CCD.
    246 Klet Observatory-KLENOT.  Observers M. Tichy, J. Ticha.  Measurer M. Tichy.
        1.06-m KLENOT Telescope + CCD.
    461 University of Szeged, Piszkesteto Stn. (Konkoly).  Observer K. Sarneczky.
        0.60-m Schmidt + CCD.
    691 Steward Observatory, Kitt Peak.  Observer J. V. Scotti.  0.9-m f/3
        reflector + CCD.
    G96 Mt. Lemmon Survey.  Observer D. C. Fuls.  Measurers E. J. Christensen,
        D. C. Fuls, A. R. Gibbs, A. D. Grauer, J. A. Johnson, R. A. Kowalski,
        S. M. Larson, G. J. Leonard, R. G. Matheny, R. L. Seaman, F. C. Shelly.
        1.5-m reflector + 10K CCD.
    H21 Astronomical Research Observatory, Westfield.  Observer R. Holmes.
        Measurers S. Foglia, L. Buzzi, T. Linder, R. Holmes.  0.76-m f/3.0
        astrograph + CCD.
    
    Orbital elements:
    2016 RS19
    Epoch 2016 July 31.0 TT = JDT 2457600.5                 MPC
    M 341.01537              (2000.0)            P               Q
    n   0.16405478     Peri.  204.54040     +0.67611872     -0.72882628
    a   3.3047869      Node   203.40054     +0.71294540     +0.68417116
    e   0.5272516      Incl.   15.78748     +0.18593637     +0.02687160
    P   6.01           H   18.9           G   0.15           U   7
    Residuals in seconds of arc
    160906 G96  0.0   0.9-    160907 461  0.0   0.3+    160909 033  0.5+  0.1-
    160906 G96  0.3+  0.0     160908 246  1.0+  0.8+    160909 033  0.6+  0.1-
    160906 G96  0.2+  0.3+    160908 246  1.0+  0.6-    160909 691  0.5+  0.3-
    160906 G96  0.3+  0.3+    160908 246  0.7+  0.3-    160909 691  1.4-  0.2+
    160907 H21  0.3+  0.2+    160909 033  0.5+  0.0     160909 691  0.6-  0.3-
    160907 H21  0.0   0.1+    160909 033  0.4+  0.2-    160910 691  0.6+  0.1-
    160907 H21  0.1+  0.0     160909 033  0.4+  0.0     160910 691  0.1+  0.2+
    160907 461  0.0   0.2+    160909 033  0.6+  0.2-    160910 691  0.4+  0.1+
    
    Ephemeris:
    2016 RS19                a,e,i = 3.30, 0.53, 16                  q = 1.5623
    Date    TT    R. A. (2000) Decl.     Delta      r     Elong.  Phase     V
    2016 08 12    00 53 27.0 +20 40 38   1.1503  1.8575   118.2    28.7    21.8
    ...
    2016 08 27    01 10 45.2 +21 07 59   0.9738  1.7863   128.4    26.3    21.3
    ...
    2016 09 04    01 18 34.8 +20 47 35   0.8899  1.7512   134.5    24.3    21.0
    ...
    2016 09 10    01 23 39.8 +20 12 21   0.8324  1.7262   139.4    22.3    20.8
    2016 09 11    01 24 26.5 +20 04 40   0.8233  1.7222   140.3    21.9    20.7
    2016 09 12    01 25 12.0 +19 56 25   0.8143  1.7182   141.1    21.6    20.7
    ...
    2016 09 18    01 29 18.5 +18 55 13   0.7638  1.6951   146.5    19.1    20.4
    ...
    2016 09 26    01 33 35.4 +17 00 34   0.7054  1.6667   154.4    15.1    20.1
    ...
    2016 10 11    01 38 18.2 +11 46 20   0.6284  1.6216   170.7     5.7    19.4
    
    A. U. Tomatic                (C) Copyright 2016 MPC           M.P.E.C. 2016-R112
    

    Read MPEC 2016-R111 Read MPEC 2016-R113


    MPEC number:

    Enter an MPEC number in one of the following forms:

    • 1997-B01 (the full form)
    • J97B01 (the packed version of the full form)
    • B01 (the abbreviated form)